Terug naar catalogus

KUZGTU-1

ActiefAmateurradioSSO
NORAD 57217·PAYLOAD·🇷🇺 Russia
Deze satellietnaam is nog niet bevestigd door officiële bronnen.

Gelanceerd Jun 27, 2023 vanaf Vostochny Cosmodrome

Loading…

Volgende Passages (komende 24 uur)

TLE

VersSource: Space-Track

Epoch: Sep 14, 2026, 10:59 UTC

1 57217U 23091AV  26257.45801805  .00009782  00000-0  32209-3 0  9995
2 57217  97.4972 322.9209 0011531 135.0591 225.1586 15.31638617178033

Volg KUZGTU-1 in realtime met AllMySat

Download on the App Store